Regional Weather Roundup
Issued by NWS

Home | Current Version | Previous Version | Text Only | Print | Product List | Glossary On
Versions: 1 2 3 4 5 6 7 8 9 10 11 12 13 14 15 16 17 18 19 20 21 22 23 24 25 26 27 28 29 30 31 32 33 34 35 36 37 38 39 40 41 42 43 44 45 46 47 48 49 50
000
ASUS44 KBMX 210310
RWRAL

ALABAMA REGIONAL WEATHER ROUNDUP
NATIONAL WEATHER SERVICE BIRMINGHAM AL
1000 PM CDT MON APR 20 2015

NOTE: "FAIR" INDICATES FEW OR NO CLOUDS BELOW 12,000 FEET
WITH NO SIGNIFICANT WEATHER AND/OR OBSTRUCTIONS TO VISIBILITY.

THE REMARK "TC" DENOTES TEMPERATURE IN DEGREES CELSIUS.

ALZ001>011-014-016>018-020-210400-
NORTH ALABAMA

CITY           SKY/WX    TMP DP  RH WIND       PRES   REMARKS
MUSCLE SHOALS  CLEAR     54  43  66 CALM      29.93R
HUNTSVILLE     PTCLDY    56  46  69 CALM      29.92R
DECATUR        CLEAR     57  46  66 W6        29.92R
HALEYVILLE       N/A     49  47  93 CALM      29.96R
GADSDEN        CLEAR     57  45  62 W7        29.91R
$$

ALZ012-013-022-023-030>036-040>044-210400-
WEST CENTRAL ALABAMA

CITY           SKY/WX    TMP DP  RH WIND       PRES   REMARKS
TUSCALOOSA     CLEAR     56  50  80 W3        29.95R
$$

ALZ015-024>027-033>036-040>044-210400-
CENTRAL ALABAMA

CITY           SKY/WX    TMP DP  RH WIND       PRES   REMARKS
BIRMINGHAM     CLEAR     59  48  67 W6        29.95R
MONTGOMERY     CLEAR     63  51  65 W6        29.92R
SHELBY CO ARPT CLEAR     59  48  67 NW6       29.93R
MAXWELL AFB    CLEAR     63  51  65 W6        29.91R
GREENVILLE     FAIR      65  50  58 NW7       29.91R
$$

ALZ019-021-028-029-037-038-045>048-210400-
EAST CENTRAL ALABAMA

CITY           SKY/WX    TMP DP  RH WIND       PRES   REMARKS
ANNISTON       CLEAR     61  47  59 W8        29.90R
ALEXANDER CITY CLEAR     62  49  62 CALM      29.92R
AUBURN         CLEAR     61  48  63 NW8       29.92R
$$

ALZ051>064-210400-
SOUTHWEST ALABAMA

CITY           SKY/WX    TMP DP  RH WIND       PRES   REMARKS
MOBILE         PTCLDY    65  53  65 NW7       29.95R
BROOKLEY FIELD CLEAR     67  52  58 NW8       29.96R
EVERGREEN      CLEAR     64  54  69 VRB3      29.93R
$$

ALZ049-050-065>069-210400-
SOUTHEAST ALABAMA

CITY           SKY/WX    TMP DP  RH WIND       PRES   REMARKS
DOTHAN         CLOUDY    69  66  90 SW6       29.92R
OZARK          PTCLDY    67  62  85 W7        29.89R
TROY           CLEAR     65  52  62 NW10      29.91R
EUFAULA        FAIR      67  58  72 NW6       29.87R
$$



USA.gov is the U.S. government's official web portal to all federal, state and local government web resources and services.